Regional Weather Roundup
Issued by NWS Glasgow, MT

Current Version | Previous Version | Text Only | Print | Product List | Glossary On
Versions: 1 2 3 4 5 6 7 8 9 10 11 12 13 14 15 16 17 18 19 20 21 22 23 24 25 26 27 28 29 30 31 32 33 34 35 36 37 38 39 40 41 42 43 44 45 46 47 48 49 50
000
ASUS45 KGGW 241815
RWRGGW
HOURLY REGIONAL WEATHER ROUNDUP FOR NORTHEAST MONTANA
NATIONAL WEATHER SERVICE GLASGOW MONTANA
1200 PM MDT SAT JUN 24 2017

NOTE: "FAIR" INDICATES FEW OR NO CLOUDS BELOW 12,000 FEET WITH NO
SIGNIFICANT WEATHER AND/OR OBSTRUCTIONS TO VISISBILITY.

NORTHEAST MONTANA


CITY           SKY/WX    TMP DP  RH WIND       PRES   REMARKS
GLASGOW        PTSUNNY   66  34  30 NW13      30.30S
6HR MIN TEMP:  43; 6HR MAX TEMP:  68;

PLENTYWOOD       N/A     61  30  31 N13         N/A
WOLF POINT     MOSUNNY   69  33  26 VRB7      30.29F
JORDAN           N/A     70  33  25 N13G20    30.30S
WINNETT          N/A     70  33  25 NW8G16      N/A
SIDNEY         MOSUNNY   65  35  33 N10G28    30.29S
GLENDIVE       SUNNY     65  33  30 NW20      30.31R
MALTA            N/A     71  40  32 S2          N/A

FORT PECK REPORTS


CITY           SKY/WX    TMP DP  RH WIND       PRES   REMARKS
FORT PECK        N/A     66  41  40 S5          N/A
THE PINES        N/A     69  35  28 CALM        N/A

SOUTHEAST MONTANA


CITY           SKY/WX    TMP DP  RH WIND       PRES   REMARKS
BILLINGS       MOSUNNY   70  35  27 N8        30.33F
MILES CITY     MOSUNNY   71  31  22 NW14G24   30.29S
BAKER          SUNNY     65  32  29 N14G23    30.31R
LIVINGSTON     SUNNY     68  38  33 E8        30.33F

CENTRAL MONTANA


CITY           SKY/WX    TMP DP  RH WIND       PRES   REMARKS
HAVRE          PTSUNNY   70  38  31 NW7       30.31S
LEWISTOWN      SUNNY     65  34  31 VRB5      30.35S
GREAT FALLS    SUNNY     69  33  26 VRB7      30.33F
CUT BANK       MOSUNNY   65  38  36 SE5       30.34S
HELENA         SUNNY     70  40  33 NE7       30.31F
BUTTE          SUNNY     66  32  28 CALM      30.35F
BOZEMAN        SUNNY     67  41  38 VRB3      30.33F

WESTERN MONTANA


CITY           SKY/WX    TMP DP  RH WIND       PRES   REMARKS
MISSOULA       SUNNY     71  43  36 VRB3      30.27F
KALISPELL      NOT AVBL

NORTH DAKOTA


CITY           SKY/WX    TMP DP  RH WIND       PRES   REMARKS
WILLISTON      PTSUNNY   64  35  34 N18G31    30.29S
DICKINSON      SUNNY     62  31  31 N20G36    30.25R
MINOT          CLOUDY    57  43  59 NW22G30   30.21R
BISMARCK       MOSUNNY   61  38  42 NW21G31   30.22R

SOUTHERN SASKATCHEWAN


CITY           SKY/WX    TMP DP  RH WIND       PRES   REMARKS
REGINA         MOSUNNY   61  39  44 N14       30.28F
ESTEVAN        PTSUNNY   57  39  51 N21G30    30.26S
SWIFT CURRENT  SUNNY     63  43  48 NW10G17   30.29R




USA.gov is the U.S. government's official web portal to all federal, state and local government web resources and services.